Regional Weather Roundup
Issued by NWS

Home | Current Version | Previous Version | Text Only | Print | Product List | Glossary On
Versions: 1 2 3 4 5 6 7 8 9 10 11 12 13 14 15 16 17 18 19 20 21 22 23 24 25 26 27 28 29 30 31 32 33 34 35 36 37 38 39 40 41 42 43 44 45 46 47 48 49 50
000
ASUS44 KBMX 311110
RWRAL

ALABAMA REGIONAL WEATHER ROUNDUP
NATIONAL WEATHER SERVICE BIRMINGHAM AL
600 AM CDT THU JUL 31 2014

NOTE: "FAIR" INDICATES FEW OR NO CLOUDS BELOW 12,000 FEET
WITH NO SIGNIFICANT WEATHER AND/OR OBSTRUCTIONS TO VISIBILITY.

THE REMARK "TC" DENOTES TEMPERATURE IN DEGREES CELSIUS.

ALZ001>011-014-016>018-020-311200-
NORTH ALABAMA

CITY           SKY/WX    TMP DP  RH WIND       PRES   REMARKS
MUSCLE SHOALS  CLOUDY    69  62  78 CALM      30.09R
HUNTSVILLE     CLOUDY    70  60  70 NE6       30.07R
DECATUR        CLOUDY    67  62  84 NE6       30.07S
HALEYVILLE     FAIR      65  62  90 CALM      30.10R
GADSDEN        CLOUDY    64  59  82 CALM      30.06R
$$

ALZ012-013-022-023-030>036-040>044-311200-
WEST CENTRAL ALABAMA

CITY           SKY/WX    TMP DP  RH WIND       PRES   REMARKS
TUSCALOOSA     CLOUDY    67  63  87 CALM      30.04R
$$

ALZ015-024>027-033>036-040>044-311200-
CENTRAL ALABAMA

CITY           SKY/WX    TMP DP  RH WIND       PRES   REMARKS
BIRMINGHAM     CLOUDY    68  58  70 CALM      30.07R
MONTGOMERY     MOCLDY    67  60  78 CALM      30.02R
SHELBY CO ARPT MOCLDY    71  57  61 CALM      30.05R
MAXWELL AFB    MOCLDY    66  61  83 N2        30.02R
GREENVILLE     FAIR      61  58  90 CALM      30.02R
$$

ALZ019-021-028-029-037-038-045>048-311200-
EAST CENTRAL ALABAMA

CITY           SKY/WX    TMP DP  RH WIND       PRES   REMARKS
ANNISTON       CLOUDY    68  58  70 E3        30.06R
ALEXANDER CITY MOCLDY    71  58  63 N3        30.04S
AUBURN         MOCLDY    66  55  68 NE8       30.07R
$$

ALZ051>064-311200-
SOUTHWEST ALABAMA

CITY           SKY/WX    TMP DP  RH WIND       PRES   REMARKS
MOBILE         PTCLDY    65  60  84 N3        30.02R
BROOKLEY FIELD CLEAR     65  61  87 NW3       30.02R
EVERGREEN      CLEAR     60  58  92 CALM      30.02R
$$

ALZ049-050-065>069-311200-
SOUTHEAST ALABAMA

CITY           SKY/WX    TMP DP  RH WIND       PRES   REMARKS
DOTHAN         CLEAR     62  60  93 CALM      30.04S
OZARK          PTCLDY    63  59  87 NW2       30.01R
TROY           PTCLDY    60  57  89 CALM      30.02R
EUFAULA        FAIR      63  61  93 CALM      30.01R
$$


USA.gov is the U.S. government's official web portal to all federal, state and local government web resources and services.